Location: Baumgarten
(49.0970°N, 12.7493°E)
Time: 08:44:23
(UTC+00:00)

COSMOS 2455 - Pass Details

Date: 05 July 2020
Orbit: 898 x 911 km, 67.1° (Epoch: 05 August)

Event Time Altitude Azimuth Distance (km) Brightness Sun altitude
Rises 21:40:35 0° 325° (NW) 3,551 7.6 -15.3°
Reaches altitude 10° 21:43:22 10° 335° (NNW) 2,608 6.6 -15.5°
Maximum altitude 21:48:48 33° 39° (NE) 1,485 4.3 -15.8°
Drops below altitude 10° 21:54:13 10° 102° (ESE) 2,599 4.9 -16.1°
Enters shadow 21:55:18 - 107° (ESE) 2,957 5.2 -16.1°
